User: anonymous   Login
Location: Stillwell
(40.4602°N, 82.0928°W)
Time: 01:50:11
(UTC-05:00)
Language:

Cosmos 2333 Rocket - Orbit

View from above orbital plane
View from above orbital plane
View from above satellite
View from above satellite

Ground track
Ground track

The orbit data is extracted from the following two-line orbital elements,

1 24298U 96051B   15058.53582439 -.00000185  00000-0 -74018-4 0  9994
2 24298 070.8518 034.1505 0016228 343.2385 155.1897 14.12436447953123
Epoch (UTC): 27 February 2015 12:51:35
Eccentricity: 0.0016228
inclination: 70.8518°
perigee height: 839 km
apogee height: 863 km
right ascension of ascending node: 34.1505°
argument of perigee: 343.2385°
revolutions per day: 14.12436447
mean anomaly at epoch: 155.1897°
orbit number at epoch: 95312

The dashed part of the orbit path shows where the satellite is in the earth's shadow,  

DLR